Regional Weather Roundup
Issued by NWS

Home | Current Version | Previous Version | Graphics & Text | Print | Product List | Glossary On
Versions: 1 2 3 4 5 6 7 8 9 10 11 12 13 14 15 16 17 18 19 20 21 22 23 24 25 26 27 28 29 30 31 32 33 34 35 36 37 38 39 40 41 42 43 44 45 46 47 48 49 50
000
ASUS43 KLMK 281302
RWRKY
KENTUCKY REGIONAL WEATHER ROUNDUP
NATIONAL WEATHER SERVICE LOUISVILLE KY
900 AM EDT SAT MAR 28 2015

NOTE "FAIR" INDICATES FEW OR NO CLOUDS BELOW 12,000 FEET
WITH NO SIGNIFICANT WEATHER AND/OR OBSTRUCTIONS TO VISIBILITY.

KYZ001>023-026-027-061>063-070>075-281400-
WESTERN AND SOUTH CENTRAL KENTUCKY

CITY           SKY/WX    TMP DP  RH WIND       PRES   REMARKS
PADUCAH        SUNNY     29  25  85 CALM      30.27R
HENDERSON      SUNNY     28  16  59 N6        30.28R WCI  22
OWENSBORO      SUNNY     27  14  57 NE8       30.28R WCI  19
HOPKINSVILLE   SUNNY     29  20  68 N6        30.25R WCI  23
BOWLING GREEN  SUNNY     28  16  60 NE6       30.25R WCI  22
GLASGOW        NOT AVBL
$$

KYZ024-025-028>034-038-045-046-053-281400-
NORTH CENTRAL KENTUCKY

CITY           SKY/WX    TMP DP  RH WIND       PRES   REMARKS
LOUISVILLE/SDF MOSUNNY   26  14  60 N9        30.26R WCI  17
LOUISVILLE/LOU SUNNY     25  15  66 N7        30.26R WCI  17
FORT KNOX      MOSUNNY   24  13  65 N7        30.23R WCI  15
$$

KYZ035>037-039>044-047>052-055>060-089>105-281400-
NORTHEAST KENTUCKY

CITY           SKY/WX    TMP DP  RH WIND       PRES   REMARKS
LEXINGTON      SUNNY     23  15  71 N8        30.21R WCI  14
COVINGTON      SUNNY     22  15  75 N8        30.23R WCI  12
FRANKFORT      SUNNY     23  13  65 N7        30.22R WCI  15
$$

KYZ054-064>069-076>088-106>120-281400-
SOUTHEAST KENTUCKY

CITY           SKY/WX    TMP DP  RH WIND       PRES   REMARKS
JACKSON        CLOUDY    25  16  68 VRB5      30.16R WCI  19
LONDON         PTSUNNY   28  14  55 N8        30.17R WCI  20
SOMERSET       NOT AVBL
MIDDLESBORO    CLOUDY    29  14  55 N8        30.17R WCI  21
MONTICELLO     MOSUNNY   28  19  69 N9        30.23R WCI  19
$$




USA.gov is the U.S. government's official web portal to all federal, state and local government web resources and services.